This is the latest recevied weather packets stored in our database for station/object KC2WGU. If no packets are shown the sender has not sent any weather packets the latest 10 day(s).
| Time | Temp. | Humidity | Pressure | Rain* | Wind** | Luminosity | Snow |
|---|---|---|---|---|---|---|---|
| 1777769416 | 3.33° C | 75% | 1010.7 hPa | 0 mm | - | 0 W/m² | - |
| 1777768816 | 3.33° C | 74% | 1010.5 hPa | 0 mm | - | 0 W/m² | - |
| 1777768215 | 3.33° C | 72% | 1010.5 hPa | 0 mm | - | 0 W/m² | - |
| 1777767615 | 4.44° C | 69% | 1010.6 hPa | 0 mm | - | 0 W/m² | - |
| 1777767015 | 5° C | 67% | 1010.6 hPa | 0 mm | - | 0 W/m² | - |
| 1777766416 | 5° C | 68% | 1010.6 hPa | 0 mm | - | 0 W/m² | - |
| 1777765815 | 5° C | 67% | 1010.6 hPa | 0 mm | - | 0 W/m² | - |
| 1777765216 | 5.56° C | 66% | 1010.5 hPa | 0 mm | - | 0 W/m² | - |
| 1777764615 | 6.11° C | 65% | 1010.4 hPa | 0 mm | - | 0 W/m² | - |
| 1777764016 | 6.11° C | 64% | 1010.3 hPa | 0 mm | - | 0 W/m² | - |
| 1777763415 | 6.67° C | 62% | 1010.4 hPa | 0 mm | - | 0 W/m² | - |
| 1777762816 | 7.22° C | 60% | 1010.3 hPa | 0 mm | - | 0 W/m² | - |
| 1777762215 | 7.22° C | 59% | 1010.3 hPa | 0 mm | - | 0 W/m² | - |
| 1777761615 | 7.78° C | 58% | 1010.1 hPa | 0 mm | - | 0 W/m² | - |
| 1777761015 | 7.78° C | 60% | 1010.1 hPa | 0 mm | - | 0 W/m² | - |
| 1777760416 | 7.22° C | 59% | 1009.9 hPa | 0 mm | - | 0 W/m² | - |
| 1777759816 | 7.78° C | 59% | 1009.9 hPa | 0 mm | - | 0 W/m² | - |
| 1777759215 | 7.78° C | 60% | 1010 hPa | 0 mm | - | 0 W/m² | - |
| 1777758616 | 8.33° C | 54% | 1009.9 hPa | 0 mm | - | 0 W/m² | - |
| 1777758015 | 8.33° C | 59% | 1009.9 hPa | 0 mm | - | 0 W/m² | - |
| 1777757416 | 7.78° C | 58% | 1009.9 hPa | 0 mm | - | 0 W/m² | - |
| 1777756816 | 8.33° C | 56% | 1009.7 hPa | 0 mm | - | 0 W/m² | - |
| 1777756215 | 8.89° C | 55% | 1009.7 hPa | 0 mm | - | 0 W/m² | - |
| 1777755615 | 8.33° C | 60% | 1009.8 hPa | 0 mm | - | 0 W/m² | - |
| 1777755015 | 7.78° C | 59% | 1009.8 hPa | 0 mm | - | 0 W/m² | - |
* Rain latest hour (hover to see other rain measurements)
** Current wind speed in m/s (hover to see current wind gust speed)